User: anonymous   Login
Location: Paderno d�Adda
(45.6667°N, 9.4333°E)
Time: 03:44:25
(UTC+00:00)
Language:

HJ-1C - Orbit

View from above orbital plane
View from above orbital plane
View from above satellite
View from above satellite

Ground track
Ground track

The orbit data is extracted from the following two-line orbital elements,

1 38997U 12064A   20329.77266131  .00004457  00000-0  10285-3 0  9997
2 38997  97.1404 356.8428 0010794 135.3388 279.0914 15.43007508450500
Epoch (UTC): 24 November 2020 18:32:37
Eccentricity: 0.0010794
inclination: 97.1404°
perigee height: 430 km
apogee height: 444 km
right ascension of ascending node: 356.8428°
argument of perigee: 135.3388°
revolutions per day: 15.43007508
mean anomaly at epoch: 279.0914°
orbit number at epoch: 45050

The dashed part of the orbit path shows where the satellite is in the earth's shadow,  

DLR